Temperature
16 16 16 16 16 16 16 16 16 16 15 15 15 15 15 15 14 14 14 14 14 14 14 14 14 14 14 14 13 13 13 13 13 13 13 13 13 13 13 13 13 13 12
15 16 16 16 16 16 16 16 16 16 16 16 15 15 15 15 15 14 14 14 14 14 14 14 14 14 14 14 13 13 13 13 13 12 12 12 12 12 12 13 12 12 12
15 16 16 16 16 17 16 16 16 16 16 15 15 15 15 14 14 14 14 14 14 14 14 14 14 14 14 14 13 13 13 13 13 12 11 11 11 11 11 11 11 11 11
16 16 16 16 17 17 17 17 16 16 16 16 15 15 15 15 15 15 15 14 14 14 14 14 14 14 14 14 14 13 13 13 13 12 12 11 10 10 10 10 10 10 10
16 16 17 17 17 17 17 16 16 16 16 16 15 15 15 15 15 15 15 14 14 14 14 14 14 14 14 13 13 13 13 12 12 12 11 11 10 10 9 9 10 10 10
16 16 17 17 16 16 16 16 16 16 16 15 15 15 15 15 15 15 14 14 14 14 14 14 14 14 13 13 13 13 12 12 12 11 11 10 9 9 9 8 9 9 9
16 16 16 16 16 16 16 16 16 15 15 15 15 15 15 15 15 15 14 14 14 14 14 14 13 13 13 13 12 12 12 11 11 10 10 9 9 8 8 8 8 8 8
15 16 16 16 16 16 16 15 15 15 15 15 15 15 14 14 14 14 14 14 14 13 13 13 13 13 13 12 12 11 11 11 10 9 9 9 8 8 8 7 7 7 7
15 15 15 15 15 15 15 15 15 15 14 14 14 14 14 14 14 14 13 13 13 13 13 13 12 12 12 11 11 11 10 10 9 9 8 8 8 7 7 7 6 6 6
14 14 14 14 14 14 14 14 14 14 14 13 13 13 13 13 13 13 13 12 12 12 12 12 12 11 11 10 10 10 9 9 8 8 7 7 7 6 6 6 6 6 6
13 13 14 14 14 13 13 13 13 13 13 12 12 12 12 12 12 12 12 12 11 11 11 11 11 10 10 10 9 9 8 8 7 7 6 6 6 6 6 5 5 5 5
13 13 13 13 13 13 12 12 12 12 12 11 11 11 11 11 11 11 11 11 11 10 10 10 10 9 9 8 8 7 7 7 6 6 5 5 5 5 5 5 5 4 4
12 12 12 12 12 12 12 11 11 11 10 10 10 10 10 10 10 10 10 10 10 9 9 9 8 8 8 7 7 7 6 6 5 5 5 4 4 4 4 4 4 4 4
11 11 11 11 11 11 11 11 10 10 9 9 9 9 9 9 9 9 9 9 9 9 8 8 7 7 7 6 6 5 5 5 4 4 3 3 3 3 3 3 3 3 3
10 10 10 10 10 10 10 10 10 9 9 8 8 8 9 9 9 9 8 8 8 8 7 7 7 6 6 5 5 4 4 4 3 3 3 2 2 2 2 2 3 3 3
9 10 10 10 10 10 10 9 9 9 8 8 8 8 8 8 8 8 8 7 7 7 6 6 5 5 4 4 3 3 3 3 2 2 2 2 2 2 2 2 2 2 2
8 9 9 9 9 9 9 9 9 8 8 8 8 8 8 8 7 7 7 7 6 6 5 5 4 4 3 2 2 2 2 1 1 1 1 1 1 1 1 1 2 2 2
8 8 8 9 9 9 9 9 8 8 8 8 7 7 7 7 7 7 6 6 5 5 4 4 3 3 2 1 1 1 1 1 0 0 1 1 1 1 1 1 1 1 1
7 7 8 8 8 8 8 8 8 8 8 7 7 7 7 7 6 6 5 5 5 4 4 3 2 2 1 1 0 0 0 0 0 0 0 0 0 0 1 1 1 1 1
6 7 7 7 8 8 8 8 8 7 7 7 7 7 6 6 6 5 5 4 4 3 3 2 1 1 0 0 0 -0 0 0 0 0 0 0 0 0 0 0 0 0 0
6 6 6 7 7 7 7 7 7 7 7 6 6 6 5 5 5 4 4 3 3 2 2 1 1 0 0 -0 -0 -0 -0 -0 -0 -0 -0 -0 -0 -0 -0 -0 -0 -0 -0
5 5 5 6 6 6 6 6 6 6 6 6 5 5 5 4 4 3 3 3 2 2 2 1 1 0 -0 -0 -0 -0 -0 -0 -0 -0 -0 -0 -1 -1 -1 -1 -1 -1 -1
4 5 5 5 5 5 5 5 5 5 5 5 5 4 4 4 3 3 3 2 2 2 1 1 1 0 -0 -0 -0 -0 -1 -1 -0 -0 -1 -1 -1 -1 -1 -1 -1 -1 -1
4 4 4 4 4 4 4 4 4 4 4 4 4 4 3 3 3 2 2 2 2 1 1 1 0 0 -0 -0 -0 -0 -1 -1 -1 -1 -1 -1 -1 -1 -1 -1 -1 -1 -1
3 3 3 3 3 4 4 4 3 3 4 3 3 3 3 3 2 2 2 2 1 1 1 0 0 0 0 0 -0 -1 -1 -1 -1 -1 -1 -1 -1 -1 -1 -1 -1 -1 -1
2 2 2 2 3 3 3 3 3 3 3 3 3 2 2 2 2 2 1 1 1 1 0 0 0 0 0 -0 -0 -1 -1 -1 -1 -1 -1 -1 -1 -1 -1 -1 -1 -2 -2
Wind_Speed
7 6 8 8 8 8 9 11 11 10 9 7 7 6 6 5 4 6 9 10 10 10 8 4 4 3 3 3 3 3 3 3 2 2 4 5 5 6 5 4 4 4 4
7 7 7 7 9 10 10 10 11 10 10 8 6 4 4 4 4 4 7 9 9 9 8 5 3 3 3 3 2 2 2 2 1 2 2 4 5 4 3 3 2 1 1
11 10 9 9 9 10 11 11 11 11 10 8 5 4 3 2 3 4 4 5 8 8 7 6 4 2 3 3 2 2 3 3 2 2 3 3 4 3 3 3 3 2 2
11 10 10 10 10 10 9 10 10 10 10 9 8 8 7 6 6 5 4 4 6 7 7 6 5 3 2 1 1 1 2 3 3 2 3 4 4 3 3 2 3 4 3
12 12 12 12 10 8 7 8 8 8 8 9 11 10 7 6 4 4 6 4 4 5 6 6 5 3 2 1 1 1 1 2 3 3 2 3 3 5 5 4 2 2 2
11 10 9 7 6 6 6 6 7 7 6 8 9 10 9 8 8 7 6 5 3 3 4 5 5 4 2 2 1 1 1 2 3 3 3 3 3 3 4 5 3 2 0
8 8 8 8 7 8 7 7 8 6 5 6 7 8 8 9 9 8 7 6 4 3 3 3 3 3 2 2 1 0 1 2 3 3 3 3 3 2 3 4 4 3 2
6 7 8 8 8 7 7 7 7 6 5 6 5 5 6 6 5 6 6 6 5 4 4 4 3 3 2 2 1 0 1 2 2 2 2 2 2 2 2 2 3 3 2
5 6 6 6 7 7 6 7 7 5 5 5 5 5 5 5 6 6 5 5 5 5 5 4 3 3 2 2 1 0 1 1 1 2 2 1 1 1 1 2 2 3 4
3 4 4 4 4 5 4 5 6 6 5 6 6 6 6 6 7 7 7 6 6 5 5 4 3 3 2 1 1 1 1 1 1 1 1 0 0 1 1 1 1 2 3
3 2 2 3 3 4 4 4 5 5 5 6 6 7 7 7 7 7 7 6 5 5 5 4 3 3 2 1 1 0 1 1 1 0 1 1 1 1 1 1 1 1 1
2 1 1 2 3 4 5 5 6 6 6 6 7 7 7 7 7 7 6 6 6 5 4 4 3 3 2 2 1 1 1 1 1 1 2 1 2 2 1 1 1 0 1
1 1 0 2 3 4 5 5 6 6 6 7 7 7 7 7 7 7 6 6 6 5 4 4 3 2 2 2 2 1 2 2 2 2 2 2 2 2 1 1 1 1 1
0 1 2 3 4 4 5 6 6 7 7 8 8 8 7 7 7 6 6 6 6 5 4 4 3 3 2 2 2 2 2 3 3 3 3 3 3 2 2 1 1 1 2
2 2 3 4 4 4 5 6 6 7 8 8 8 8 7 7 7 6 6 5 5 5 4 4 3 3 2 2 3 2 3 3 3 3 3 3 3 4 3 2 1 1 2
4 4 4 4 5 6 6 6 7 8 8 9 8 8 8 7 7 7 6 6 5 4 4 4 4 3 2 4 5 4 3 3 4 3 3 3 3 4 5 5 4 3 3
6 6 5 6 6 6 7 8 8 7 8 9 8 8 8 8 7 7 7 6 5 5 4 4 4 4 4 5 5 5 3 3 4 4 3 2 3 4 4 5 7 6 5
6 7 6 7 6 6 5 6 6 8 9 9 9 9 9 8 8 7 7 6 5 5 4 4 5 4 4 6 6 6 3 3 3 4 4 4 3 3 4 4 3 4 4
5 6 6 7 6 5 4 5 6 7 9 9 9 9 10 9 9 8 7 6 5 5 4 4 5 5 5 7 7 6 3 3 3 3 3 4 4 5 6 4 3 2 2
5 5 6 5 5 4 2 5 6 7 9 9 9 9 9 9 9 8 7 5 5 5 5 5 5 6 5 8 9 8 3 3 3 2 3 6 6 6 6 5 4 3 2
6 6 6 6 5 3 1 4 5 7 7 6 7 8 8 9 8 7 6 5 5 5 5 5 5 5 7 9 11 11 5 5 4 4 4 4 8 8 7 6 5 5 4
6 6 6 6 6 3 0 2 4 4 4 6 7 7 8 7 7 8 7 7 7 7 6 6 5 5 6 9 10 13 11 9 6 5 5 5 9 9 9 6 7 7 5
5 5 5 5 5 4 2 2 3 2 4 5 6 6 7 7 7 8 8 7 7 7 6 6 6 6 5 7 14 14 14 14 7 6 9 10 11 10 7 8 9 6 4
5 5 4 5 5 4 3 2 2 2 4 6 6 6 7 7 7 7 7 7 8 8 7 7 7 6 5 6 6 6 7 11 9 6 9 12 12 9 8 7 6 4 4
5 4 4 5 5 4 4 3 2 2 4 5 5 6 6 7 7 7 8 9 9 9 9 8 7 7 7 10 13 9 7 6 6 5 4 4 3 5 5 4 4 4 4
5 5 5 5 5 5 4 3 2 2 3 4 5 5 5 6 6 6 6 11 12 15 16 14 11 9 12 11 14 17 17 16 14 9 5 7 7 8 7 7 6 6 6
Wind_Direction
237 214 197 188 181 181 179 180 178 178 172 171 175 178 184 180 176 182 186 184 184 184 180 180 186 184 193 214 219 220 238 250 241 276 296 292 278 276 276 273 266 261 245
243 223 207 194 190 188 187 184 183 182 183 185 181 176 171 175 180 176 179 182 179 179 180 175 177 178 193 210 216 210 227 249 206 209 286 311 322 317 313 322 311 304 94
221 215 203 201 199 196 191 192 190 186 186 178 159 141 127 126 160 177 177 176 169 168 163 162 163 165 179 197 209 202 206 239 252 205 213 243 267 305 315 352 15 31 51
218 215 205 203 203 203 195 192 191 187 185 176 174 173 180 191 197 182 170 152 145 142 143 141 139 131 140 167 197 178 191 206 241 254 233 227 220 250 296 322 6 27 28
215 212 207 204 202 197 189 188 186 187 185 183 185 185 188 192 171 150 151 150 133 127 129 129 124 121 127 139 151 177 201 212 225 229 241 253 245 230 237 270 289 353 16
216 213 208 195 189 182 180 178 177 184 183 183 185 187 185 175 164 162 164 157 140 124 125 126 123 123 131 145 170 206 227 236 240 235 226 228 237 233 228 246 248 244 334
199 190 184 182 180 177 178 175 172 178 178 177 181 183 182 176 176 172 169 162 157 155 153 134 128 126 127 126 123 165 258 253 250 244 238 234 237 239 237 248 250 231 192
180 181 182 181 182 180 176 174 174 176 172 171 173 166 164 167 168 163 160 161 158 149 142 129 122 116 110 97 75 311 269 261 255 253 248 247 247 245 239 243 239 243 220
164 169 171 173 178 179 182 179 173 170 167 162 150 143 145 149 146 138 128 129 130 130 128 123 115 102 89 70 58 305 282 273 260 254 248 243 260 271 269 259 240 227 229
136 152 163 176 181 182 181 177 174 171 162 154 149 137 128 126 126 121 121 122 121 119 124 122 117 106 87 66 57 289 280 251 251 242 213 153 9 22 352 297 279 251 227
117 133 165 173 173 170 171 170 168 158 154 148 136 129 126 124 120 120 125 125 120 120 122 122 119 111 92 64 66 276 267 210 214 168 135 104 69 53 9 354 350 327 239
104 132 162 161 173 185 183 177 172 166 161 148 138 134 128 124 123 124 126 126 123 122 123 119 116 115 105 89 98 111 102 159 161 134 126 117 100 72 26 24 33 347 311
73 54 161 214 211 205 196 187 180 172 158 145 142 139 137 136 139 138 135 132 130 126 123 125 128 126 124 113 106 116 102 105 115 119 124 120 116 93 54 48 49 359 2
20 257 255 248 235 218 204 193 186 172 159 152 152 156 157 154 151 145 141 138 135 137 140 141 144 146 143 135 127 123 119 111 100 97 105 112 126 132 120 80 50 71 83
320 287 264 253 244 233 219 202 190 177 165 161 165 170 161 151 146 145 143 141 145 152 154 152 153 151 153 160 149 142 148 136 118 100 92 99 115 128 128 119 97 108 113
312 305 291 276 254 235 223 210 199 186 172 172 176 166 157 155 155 155 153 153 158 159 161 168 170 174 184 185 182 172 159 155 148 137 112 94 80 87 88 84 85 108 136
322 313 297 278 261 244 224 213 204 185 178 179 174 168 164 165 166 164 163 170 174 173 176 180 178 180 191 195 193 185 158 160 163 161 158 145 116 93 77 74 62 55 66
322 315 305 293 278 255 234 213 187 180 182 182 178 173 170 172 169 170 177 180 176 180 183 185 183 182 199 200 192 172 145 150 165 172 174 162 152 155 140 115 81 55 43
305 298 293 287 285 267 233 192 183 182 184 188 187 181 176 174 175 182 184 181 178 183 186 184 185 189 204 201 190 171 150 166 181 188 186 177 186 196 167 144 134 97 38
317 312 314 310 309 290 214 182 188 189 199 198 190 180 176 177 183 186 181 177 179 187 186 192 195 197 207 210 205 189 168 183 196 208 212 204 202 206 184 165 167 181 203
325 330 333 330 318 311 178 188 197 210 208 184 172 174 178 181 181 178 175 176 180 184 192 200 208 210 216 221 218 205 184 192 197 205 213 229 221 216 208 192 189 208 193
329 334 337 334 333 336 159 208 224 216 173 169 175 180 180 180 177 176 181 182 185 194 201 208 219 224 224 226 227 219 212 204 198 207 208 220 226 224 222 212 212 217 189
319 323 326 329 336 344 339 259 257 193 174 175 185 185 181 183 178 180 185 189 195 205 209 212 222 226 219 226 229 227 224 219 208 211 216 220 227 225 226 226 224 216 180
312 315 319 320 322 331 328 285 266 208 188 193 193 187 187 190 188 190 191 197 205 211 213 215 222 224 219 219 223 224 230 227 221 213 223 225 228 219 215 227 235 206 192
309 311 306 299 301 310 309 298 265 212 206 205 201 197 198 197 199 203 206 207 214 213 213 216 214 215 225 226 218 210 214 210 208 186 191 201 207 211 208 215 221 215 215
307 308 306 301 299 299 295 292 269 231 216 217 211 208 206 205 207 211 222 223 223 228 229 227 221 224 229 232 227 224 223 222 217 205 202 211 215 220 221 222 222 219 220
Height
1497 1500 1502 1505 1508 1511 1513 1516 1519 1522 1525 1527 1530 1532 1535 1537 1540 1543 1545 1547 1548 1550 1551 1552 1553 1553 1554 1554 1554 1554 1554 1553 1553 1551 1549 1548 1547 1546 1545 1544 1543 1542 1542
1495 1498 1500 1503 1505 1508 1510 1513 1516 1519 1522 1524 1526 1529 1532 1535 1537 1540 1542 1543 1545 1546 1548 1549 1550 1550 1550 1551 1551 1550 1550 1549 1549 1548 1546 1543 1542 1541 1541 1540 1540 1539 1538
1492 1495 1497 1500 1503 1505 1508 1510 1513 1515 1518 1521 1523 1526 1529 1531 1533 1535 1537 1539 1541 1543 1544 1545 1546 1546 1547 1547 1547 1546 1546 1545 1545 1544 1544 1542 1539 1538 1537 1536 1536 1535 1535
1489 1492 1494 1497 1500 1502 1505 1507 1510 1512 1515 1518 1520 1522 1524 1526 1528 1531 1533 1536 1537 1539 1540 1541 1542 1542 1543 1542 1542 1541 1541 1540 1539 1539 1538 1538 1537 1536 1533 1533 1532 1532 1531
1485 1488 1491 1493 1496 1499 1502 1504 1507 1509 1511 1514 1517 1519 1521 1524 1526 1528 1530 1532 1533 1535 1536 1537 1538 1538 1538 1538 1537 1537 1536 1535 1534 1534 1533 1532 1532 1531 1531 1528 1528 1528 1527
1481 1484 1487 1490 1493 1496 1499 1501 1504 1506 1508 1510 1512 1514 1517 1519 1522 1524 1526 1528 1529 1531 1532 1533 1533 1533 1533 1533 1532 1532 1531 1530 1529 1528 1527 1527 1527 1526 1525 1524 1524 1523 1523
1477 1480 1484 1487 1489 1492 1495 1498 1500 1502 1505 1507 1509 1511 1514 1516 1518 1520 1522 1524 1525 1526 1528 1528 1528 1528 1528 1528 1527 1526 1525 1524 1523 1523 1522 1521 1521 1521 1520 1520 1519 1519 1518
1474 1477 1480 1483 1486 1489 1492 1494 1497 1499 1501 1503 1505 1507 1510 1512 1514 1516 1518 1520 1521 1522 1523 1523 1524 1523 1523 1522 1521 1520 1520 1519 1518 1517 1517 1516 1515 1515 1515 1515 1515 1514 1514
1472 1475 1478 1481 1484 1486 1489 1491 1493 1495 1497 1499 1501 1503 1505 1508 1510 1512 1514 1515 1516 1517 1518 1518 1518 1518 1517 1517 1516 1515 1514 1513 1512 1512 1511 1511 1510 1510 1510 1510 1510 1511 1510
1472 1474 1477 1479 1482 1484 1487 1489 1490 1492 1494 1495 1497 1499 1501 1503 1506 1507 1509 1511 1512 1512 1513 1514 1513 1513 1512 1511 1511 1510 1509 1508 1507 1507 1506 1505 1505 1505 1505 1505 1505 1506 1506
1472 1474 1476 1478 1480 1482 1484 1485 1487 1488 1489 1491 1493 1495 1497 1499 1501 1503 1505 1506 1507 1508 1509 1509 1508 1508 1507 1506 1505 1504 1504 1503 1502 1502 1501 1501 1500 1500 1500 1500 1500 1501 1501
1473 1474 1476 1477 1478 1480 1481 1482 1483 1484 1486 1487 1489 1491 1493 1496 1498 1500 1501 1502 1503 1504 1504 1504 1504 1503 1502 1501 1500 1499 1498 1498 1497 1497 1496 1496 1496 1496 1496 1496 1496 1496 1497
1474 1474 1475 1476 1477 1477 1478 1479 1480 1481 1482 1484 1486 1488 1490 1492 1494 1496 1498 1499 1500 1500 1500 1500 1499 1498 1497 1496 1495 1494 1494 1493 1493 1492 1492 1492 1492 1492 1492 1492 1492 1492 1492
1474 1474 1474 1474 1475 1475 1475 1476 1476 1478 1479 1481 1483 1485 1487 1489 1491 1493 1494 1495 1495 1495 1495 1495 1494 1493 1492 1491 1490 1489 1489 1488 1488 1488 1488 1488 1488 1488 1488 1488 1488 1488 1488
1473 1473 1473 1472 1472 1472 1472 1473 1473 1474 1476 1477 1480 1482 1484 1486 1488 1489 1490 1491 1491 1491 1491 1490 1489 1488 1487 1486 1485 1484 1484 1484 1484 1484 1484 1484 1484 1484 1484 1485 1485 1485 1485
1472 1471 1470 1470 1469 1469 1469 1469 1470 1471 1472 1474 1476 1479 1481 1482 1484 1485 1486 1487 1487 1487 1486 1485 1484 1483 1482 1481 1481 1480 1480 1480 1480 1480 1481 1481 1481 1481 1481 1482 1482 1482 1482
1470 1469 1468 1467 1466 1465 1465 1465 1466 1467 1469 1471 1473 1475 1477 1479 1480 1482 1482 1483 1483 1482 1482 1481 1480 1479 1478 1478 1477 1477 1477 1477 1477 1478 1478 1478 1478 1479 1479 1479 1479 1479 1479
1468 1466 1465 1463 1463 1462 1462 1462 1463 1463 1465 1467 1469 1471 1473 1475 1477 1477 1478 1478 1478 1478 1477 1477 1476 1475 1475 1474 1474 1474 1474 1474 1475 1475 1476 1476 1476 1476 1476 1476 1476 1476 1477
1466 1464 1462 1460 1459 1458 1458 1458 1459 1460 1461 1463 1466 1468 1470 1471 1472 1473 1474 1474 1474 1474 1473 1473 1472 1472 1472 1471 1471 1471 1471 1472 1472 1473 1473 1473 1474 1474 1474 1474 1474 1474 1474
1463 1461 1459 1457 1456 1455 1455 1455 1455 1456 1458 1460 1462 1464 1465 1467 1468 1469 1470 1470 1470 1469 1469 1469 1468 1468 1468 1468 1469 1469 1469 1469 1470 1470 1471 1471 1471 1472 1472 1472 1472 1472 1472
1461 1459 1457 1455 1453 1452 1452 1452 1452 1453 1455 1456 1458 1459 1461 1462 1463 1464 1465 1465 1465 1465 1465 1465 1465 1465 1465 1465 1466 1466 1466 1467 1467 1468 1468 1469 1469 1469 1469 1470 1470 1470 1470
1459 1457 1454 1452 1451 1450 1449 1449 1450 1451 1451 1452 1453 1455 1456 1457 1458 1459 1460 1460 1460 1460 1460 1460 1461 1461 1461 1462 1462 1463 1463 1464 1464 1465 1466 1466 1466 1467 1467 1467 1467 1468 1468
1457 1455 1453 1451 1449 1448 1447 1447 1447 1447 1448 1448 1449 1450 1451 1452 1453 1454 1454 1455 1455 1455 1455 1456 1456 1457 1458 1458 1459 1459 1460 1461 1461 1462 1462 1463 1463 1464 1464 1464 1465 1465 1465
1454 1452 1450 1449 1447 1446 1445 1444 1444 1443 1443 1444 1444 1445 1446 1447 1448 1448 1449 1450 1450 1450 1451 1451 1452 1452 1453 1454 1455 1455 1456 1457 1457 1458 1459 1459 1460 1460 1461 1461 1461 1461 1462
1451 1450 1448 1446 1444 1443 1442 1441 1440 1440 1439 1439 1440 1440 1441 1442 1442 1443 1444 1444 1445 1446 1446 1447 1447 1448 1448 1450 1451 1451 1452 1453 1454 1454 1455 1455 1456 1456 1457 1457 1457 1458 1458
1448 1446 1444 1442 1441 1439 1438 1437 1436 1436 1435 1435 1435 1435 1436 1436 1437 1437 1438 1439 1440 1440 1441 1441 1442 1443 1444 1445 1445 1446 1447 1448 1449 1449 1449 1450 1451 1451 1452 1452 1453 1453 1453